Regional Weather Roundup
Issued by NWS Newport/Morehead, NC

Current Version | Previous Version | Text Only | Print | Product List | Glossary On
Versions: 1 2 3 4 5 6 7 8 9 10 11 12 13 14 15 16 17 18 19 20 21 22 23 24 25 26 27 28 29 30 31 32 33 34 35 36 37 38 39 40 41 42 43 44 45 46 47 48 49 50
000 ASUS42 KMHX 291724 RWRMHX WEATHER ROUNDUP FOR EASTERN NORTH CAROLINA NATIONAL WEATHER SERVICE NEWPORT/MOREHEAD CITY NC 100 PM EDT SUN MAR 29 2015 NOTE: "FAIR" INDICATES FEW OR NO CLOUDS BELOW 12,000 FEET WITH NO SIGNIFICANT WEATHER AND/OR OBSTRUCTIONS TO VISIBILITY NCZ015>017-031-032-045>047-102-103-291800- NORTH COAST CITY SKY/WX TMP DP RH WIND PRES REMARKS EDENTON SUNNY 42 10 26 N14G20 30.41S ELIZABETH CITY SUNNY 41 12 30 NW9 30.39F KITTY HAWK SUNNY 39 11 32 N9G16 30.38S MANTEO SUNNY 39 14 37 N12G20 30.39F $$ NCZ045>047-081-094-103-104-291800- CENTRAL COAST CITY SKY/WX TMP DP RH WIND PRES REMARKS FRISCO SUNNY 42 15 33 NW10G20 30.39S SWANQUARTER N/A 43 N/A N/A N2G15 30.36S $$ NCZ095-097-098-100-101-291800- SOUTHERN COAST CITY SKY/WX TMP DP RH WIND PRES REMARKS BEAUFORT SUNNY 45 19 35 N12 30.41F CEDAR ISLAND N/A 41 N/A N/A NW14G21 30.44S JACKSONVILLE SUNNY 44 12 27 N8G21 30.42F PINEY ISLAND SUNNY N/A N/A N/A N15 30.41F WILMINGTON SUNNY 46 14 27 MISG 30.42F $$ NCZ011>013-027>030-043-044-078>080-089-090>093-098-291800- COASTAL PLAIN CITY SKY/WX TMP DP RH WIND PRES REMARKS AHOSKIE SUNNY 40 12 32 N6 30.42F CLINTON SUNNY 44 17 34 N6 30.44F ELIZABETHTOWN SUNNY 44 10 25 SW5 30.42F GOLDSBORO SUNNY 43 14 30 NW12G17 30.41F GREENVILLE SUNNY 43 12 28 NW7 30.42F HAVELOCK SUNNY 44 12 27 NW13 30.42F KENANSVILLE SUNNY 44 8 23 NW9G16 30.44S KINSTON SUNNY 43 10 26 CALM 30.43F NEW BERN SUNNY 44 14 29 N12G18 30.43F RICHLANDS SUNNY 45 10 24 NW5 30.42F ROCKY MOUNT SUNNY 44 12 27 MISG 30.43F WASHINGTON SUNNY 40 11 29 NW3G10 30.41F WHITEVILLE SUNNY 44 11 27 SW5 30.43F $$ AMZ130-135-150-152-154-156-158-170-250-252-270-ANZ085-086-088-633-658-670-291800- MARINE OBSERVATIONS STATION/POSITION TIME TEMP WIND PRES WAVE SWELL AIR SEA DIR/SP/G HT/PER HT/PER (UTC) (F) (DEG/KT/KT) (MB) (FT/S) (FT/S) CHESAPEAKE LIGHT 1700 34 320/ 19/ 20 1029.4 64 E VA BEACH 1650 34 50 320/ 19/ 25 1027.2 6/ 6 2/12 DUCK 1700 42 350/ 12/ 16 1027.9 2 E DUCK 1611 42 N/A 4/ 6 10 NE DUCK NOT AVBL OREGON INLET 1700 44 320/ 10/ 16 1029.0 HATTERAS CG 1600 36 48 330/ 14/ 21 1029.3 CAPE LOOKOUT 1700 41 330/ 10/ 12 1029.5 BEAUFORT LAB 1600 40 52 350/ 8/ 15 1029.3 27 SE WRIGHTSVLE 1700 38 64 360/ 10/ 14 1031.3 5 SE WRIGHTSVLE 1700 42 56 70/ 2/ 4 1030.3 225 S CAPE HAT 1650 54 68 330/ 23/ 29 1026.4 9/ 8 3/11 41 SE CHARLESTON 1650 46 68 20/ 16/ 19 1030.2 5/ 7 2/ 8 $$

USA.gov is the U.S. government's official web portal to all federal, state and local government web resources and services.